Вернуться в каталог

STARLINK-36731

АктивенСвязьVLEO
NORAD 68964·PAYLOAD·🇺🇸 United States

Запущен May 1, 2026 с Cape Canaveral Space Force Station

Loading…

Ближайшие Пролёты (ближайшие 24 часа)

TLE

СвежийSource: CelesTrak SupGP

Эпоха: Sep 14, 2026, 21:07 UTC

1 68964C 26099P   26257.88034722 -.00038745  00000+0 -11448-2 0  2570
2 68964  53.1577 102.0209 0001345  82.5789 222.4834 15.34406494    15

Отслеживайте STARLINK-36731 в реальном времени с AllMySat

Download on the App Store